Year,Month,Day,Hour,Minute,Value (Times are PST for temperature in C)
2018,01,17,12,15,13.30
2018,01,17,12,16,13.30
2018,01,17,12,17,13.30
2018,01,17,12,18,13.20
2018,01,17,12,19,13.20
2018,01,17,12,20,13.20
2018,01,17,12,21,13.20
2018,01,17,12,22,13.20
2018,01,17,12,23,13.20
2018,01,17,12,24,13.20
2018,01,17,12,25,13.20
2018,01,17,12,26,13.20
2018,01,17,12,27,13.20
2018,01,17,12,28,13.20
2018,01,17,12,29,13.20
2018,01,17,12,30,13.20
2018,01,17,12,31,13.20
2018,01,17,12,32,13.20
2018,01,17,12,33,13.20
2018,01,17,12,34,13.20
2018,01,17,12,35,13.20
2018,01,17,12,36,13.30
2018,01,17,12,37,13.30
2018,01,17,12,38,13.30
2018,01,17,12,39,13.40
2018,01,17,12,40,13.40
2018,01,17,12,41,13.40
2018,01,17,12,42,13.40
2018,01,17,12,43,13.40
2018,01,17,12,44,13.40
2018,01,17,12,45,13.40
2018,01,17,12,46,13.50
2018,01,17,12,47,13.50
2018,01,17,12,48,13.50
2018,01,17,12,49,13.50
2018,01,17,12,50,13.50
2018,01,17,12,51,13.50
2018,01,17,12,52,13.50
2018,01,17,12,53,13.50
2018,01,17,12,54,13.50
2018,01,17,12,55,13.60
2018,01,17,12,56,13.60
2018,01,17,12,57,13.70
2018,01,17,12,58,13.70
2018,01,17,12,59,13.70
2018,01,17,13,00,13.80
2018,01,17,13,01,13.80
2018,01,17,13,02,13.80
2018,01,17,13,03,13.80
2018,01,17,13,04,13.80
2018,01,17,13,05,13.80
2018,01,17,13,06,13.80
2018,01,17,13,07,13.80
2018,01,17,13,08,13.80
2018,01,17,13,09,13.90
2018,01,17,13,10,13.80
2018,01,17,13,11,13.90
2018,01,17,13,12,13.90
2018,01,17,13,13,13.90
2018,01,17,13,14,13.80
2018,01,17,13,15,13.80
2018,01,17,13,16,13.80
2018,01,17,13,17,13.80
2018,01,17,13,18,13.80
2018,01,17,13,19,13.80
2018,01,17,13,20,13.70
2018,01,17,13,21,13.70
2018,01,17,13,22,13.70
2018,01,17,13,23,13.60
2018,01,17,13,24,13.60
2018,01,17,13,25,13.60
2018,01,17,13,26,13.50
2018,01,17,13,27,13.50
2018,01,17,13,28,13.40
2018,01,17,13,29,13.40
2018,01,17,13,30,13.30
2018,01,17,13,31,13.30
2018,01,17,13,32,13.20
2018,01,17,13,33,13.20
2018,01,17,13,34,13.00
2018,01,17,13,35,12.90
2018,01,17,13,36,12.70
2018,01,17,13,37,12.50
2018,01,17,13,38,12.40
2018,01,17,13,39,12.20
2018,01,17,13,40,12.10
2018,01,17,13,41,11.90
2018,01,17,13,42,11.80
2018,01,17,13,43,11.60
2018,01,17,13,44,11.40
2018,01,17,13,45,11.30
2018,01,17,13,46,11.20
2018,01,17,13,47,11.10
2018,01,17,13,48,11.00
2018,01,17,13,49,10.90
2018,01,17,13,50,10.80
2018,01,17,13,51,10.70
2018,01,17,13,52,10.60
2018,01,17,13,53,10.50
2018,01,17,13,54,10.40
2018,01,17,13,55,10.30
2018,01,17,13,56,10.20
2018,01,17,13,57,10.10
2018,01,17,13,58,10.10
2018,01,17,13,59,10.00
2018,01,17,14,00,10.00
2018,01,17,14,01,9.90
2018,01,17,14,02,9.90
2018,01,17,14,03,9.90
2018,01,17,14,04,9.80
2018,01,17,14,05,9.80
2018,01,17,14,06,9.80
2018,01,17,14,07,9.70
2018,01,17,14,08,9.70
2018,01,17,14,09,9.70
2018,01,17,14,10,9.70
2018,01,17,14,11,9.60
2018,01,17,14,12,9.60
2018,01,17,14,13,9.60
2018,01,17,14,14,9.60
2018,01,17,14,15,9.60
2018,01,17,14,16,9.60
2018,01,17,14,17,9.60
2018,01,17,14,18,9.50
2018,01,17,14,19,9.50
2018,01,17,14,20,9.50
2018,01,17,14,21,9.40
2018,01,17,14,22,9.40
2018,01,17,14,23,9.40
2018,01,17,14,24,9.40
2018,01,17,14,25,9.40
2018,01,17,14,26,9.30
2018,01,17,14,27,9.30
2018,01,17,14,28,9.30
2018,01,17,14,29,9.30
2018,01,17,14,30,9.30
2018,01,17,14,31,9.30
2018,01,17,14,32,9.30
2018,01,17,14,33,9.30
2018,01,17,14,34,9.30
2018,01,17,14,35,9.30
2018,01,17,14,36,9.30
2018,01,17,14,37,9.20
2018,01,17,14,38,9.20
2018,01,17,14,39,9.20
2018,01,17,14,40,9.20
2018,01,17,14,41,9.20
2018,01,17,14,42,9.20
2018,01,17,14,43,9.20
2018,01,17,14,44,9.20
2018,01,17,14,45,9.20
2018,01,17,14,46,9.20
2018,01,17,14,47,9.20
2018,01,17,14,48,9.20
2018,01,17,14,49,9.20
2018,01,17,14,50,9.20
2018,01,17,14,51,9.20
2018,01,17,14,52,9.20
2018,01,17,14,53,9.20
2018,01,17,14,54,9.10
2018,01,17,14,55,9.10
2018,01,17,14,56,9.10
2018,01,17,14,57,9.10
2018,01,17,14,58,9.10
2018,01,17,14,59,9.10
2018,01,17,15,00,9.10
2018,01,17,15,01,9.10
2018,01,17,15,02,9.10
2018,01,17,15,03,9.10
2018,01,17,15,04,9.10
2018,01,17,15,05,9.10
2018,01,17,15,06,9.00
2018,01,17,15,07,9.00
2018,01,17,15,08,9.00
2018,01,17,15,09,9.00
2018,01,17,15,10,9.00
2018,01,17,15,11,9.10
2018,01,17,15,12,9.10
2018,01,17,15,13,9.10
2018,01,17,15,14,9.10
2018,01,17,15,15,9.10
2018,01,17,15,16,9.10
2018,01,17,15,17,9.10
2018,01,17,15,18,9.10
2018,01,17,15,19,9.10
2018,01,17,15,20,9.10
2018,01,17,15,21,9.10
2018,01,17,15,22,9.10
2018,01,17,15,23,9.10
2018,01,17,15,24,9.20
2018,01,17,15,25,9.20
2018,01,17,15,26,9.20
2018,01,17,15,27,9.30
2018,01,17,15,28,9.30
2018,01,17,15,29,9.40
2018,01,17,15,30,9.40
2018,01,17,15,31,9.50
2018,01,17,15,32,9.60
2018,01,17,15,33,9.70
2018,01,17,15,34,9.80
2018,01,17,15,35,9.80
2018,01,17,15,36,9.80
2018,01,17,15,37,9.90
2018,01,17,15,38,9.90
2018,01,17,15,39,9.90
2018,01,17,15,40,9.90
2018,01,17,15,41,10.00
2018,01,17,15,42,10.10
2018,01,17,15,43,10.20
2018,01,17,15,44,10.20
2018,01,17,15,45,10.20
2018,01,17,15,46,10.30
2018,01,17,15,47,10.30
2018,01,17,15,48,10.30
2018,01,17,15,49,10.30
2018,01,17,15,50,10.30
2018,01,17,15,51,10.30
2018,01,17,15,52,10.30
2018,01,17,15,53,10.30
2018,01,17,15,54,10.20
2018,01,17,15,55,10.20
2018,01,17,15,56,10.10
2018,01,17,15,57,10.10
2018,01,17,15,58,10.10
2018,01,17,15,59,10.20
2018,01,17,16,00,10.20
2018,01,17,16,01,10.10
2018,01,17,16,02,10.10
2018,01,17,16,03,10.10
2018,01,17,16,04,10.10
2018,01,17,16,05,10.10
2018,01,17,16,06,10.20
2018,01,17,16,07,10.10
2018,01,17,16,08,10.10
2018,01,17,16,09,10.10
2018,01,17,16,10,10.10
2018,01,17,16,11,10.10
2018,01,17,16,12,10.10
2018,01,17,16,13,10.10
2018,01,17,16,14,10.10
2018,01,17,16,15,10.10
2018,01,17,16,16,10.10
2018,01,17,16,17,10.10
2018,01,17,16,18,10.20
2018,01,17,16,19,10.20
2018,01,17,16,20,10.30
2018,01,17,16,21,10.30
2018,01,17,16,22,10.30
2018,01,17,16,23,10.40
2018,01,17,16,24,10.40
2018,01,17,16,25,10.40
2018,01,17,16,26,10.40
2018,01,17,16,27,10.40
2018,01,17,16,28,10.40
2018,01,17,16,29,10.40
2018,01,17,16,30,10.40
2018,01,17,16,31,10.40
2018,01,17,16,32,10.40
2018,01,17,16,33,10.50
2018,01,17,16,34,10.60
2018,01,17,16,35,10.70
2018,01,17,16,36,10.70
2018,01,17,16,37,10.80
2018,01,17,16,38,10.80
2018,01,17,16,39,10.80
2018,01,17,16,40,10.80
2018,01,17,16,41,10.80
2018,01,17,16,42,10.70
2018,01,17,16,43,10.70
2018,01,17,16,44,10.80
2018,01,17,16,45,10.80
2018,01,17,16,46,10.80
2018,01,17,16,47,10.80
2018,01,17,16,48,10.80
2018,01,17,16,49,10.90
2018,01,17,16,50,10.80
2018,01,17,16,51,10.80
2018,01,17,16,52,10.80
2018,01,17,16,53,10.80
2018,01,17,16,54,10.80
2018,01,17,16,55,10.80
2018,01,17,16,56,10.80
2018,01,17,16,57,10.80
2018,01,17,16,58,10.80
2018,01,17,16,59,10.80
2018,01,17,17,00,10.80
2018,01,17,17,01,10.80
2018,01,17,17,02,10.80
2018,01,17,17,03,10.80
2018,01,17,17,04,10.80
2018,01,17,17,05,10.70
2018,01,17,17,06,10.70
2018,01,17,17,07,10.70
2018,01,17,17,08,10.70
2018,01,17,17,09,10.70
2018,01,17,17,10,10.70
2018,01,17,17,11,10.70
2018,01,17,17,12,10.70
2018,01,17,17,13,10.70
2018,01,17,17,14,10.70
2018,01,17,17,15,10.70
2018,01,17,17,16,10.70
2018,01,17,17,17,10.70
2018,01,17,17,18,10.70
2018,01,17,17,19,10.70
2018,01,17,17,20,10.70
2018,01,17,17,21,10.70
2018,01,17,17,22,10.70
2018,01,17,17,23,10.70
2018,01,17,17,24,10.70
2018,01,17,17,25,10.80
2018,01,17,17,26,10.80
2018,01,17,17,27,10.80
2018,01,17,17,28,10.90
2018,01,17,17,29,10.90
2018,01,17,17,30,10.90
2018,01,17,17,31,10.90
2018,01,17,17,32,10.90
2018,01,17,17,33,10.90
2018,01,17,17,34,10.90
2018,01,17,17,35,10.90
2018,01,17,17,36,10.90
2018,01,17,17,37,10.90
2018,01,17,17,38,10.90
2018,01,17,17,39,11.00
2018,01,17,17,40,10.90
2018,01,17,17,41,10.90
2018,01,17,17,42,10.90
2018,01,17,17,43,10.90
2018,01,17,17,44,10.90
2018,01,17,17,45,10.90
2018,01,17,17,46,10.90
2018,01,17,17,47,10.90
2018,01,17,17,48,10.90
2018,01,17,17,49,10.90
2018,01,17,17,50,10.90
2018,01,17,17,51,10.90
2018,01,17,17,52,10.90
2018,01,17,17,53,10.90
2018,01,17,17,54,10.90
2018,01,17,17,55,10.90
2018,01,17,17,56,10.90
2018,01,17,17,57,10.90
2018,01,17,17,58,10.90
2018,01,17,17,59,10.90
2018,01,17,18,00,10.90
2018,01,17,18,01,10.90
2018,01,17,18,02,10.80
2018,01,17,18,03,10.80
2018,01,17,18,04,10.80
2018,01,17,18,05,10.80
2018,01,17,18,06,10.80
2018,01,17,18,07,10.80
2018,01,17,18,08,10.80
2018,01,17,18,09,10.80
2018,01,17,18,10,10.80
2018,01,17,18,11,10.90
2018,01,17,18,12,10.90
2018,01,17,18,13,10.90
2018,01,17,18,14,10.80
2018,01,17,18,15,10.80
2018,01,17,18,16,10.80
2018,01,17,18,17,10.80
2018,01,17,18,18,10.80
2018,01,17,18,19,10.80
2018,01,17,18,20,10.80
2018,01,17,18,21,10.80
2018,01,17,18,22,10.70
2018,01,17,18,23,10.70
2018,01,17,18,24,10.70
2018,01,17,18,25,10.70
2018,01,17,18,26,10.70
2018,01,17,18,27,10.70
2018,01,17,18,28,10.70
2018,01,17,18,29,10.70
2018,01,17,18,30,10.70
2018,01,17,18,31,10.70
2018,01,17,18,32,10.70
2018,01,17,18,33,10.70
2018,01,17,18,34,10.70
2018,01,17,18,35,10.60
2018,01,17,18,36,10.60
2018,01,17,18,37,10.60
2018,01,17,18,38,10.60
2018,01,17,18,39,10.60
2018,01,17,18,40,10.60
2018,01,17,18,41,10.50
2018,01,17,18,42,10.50
2018,01,17,18,43,10.40
2018,01,17,18,44,10.40
2018,01,17,18,45,10.40
2018,01,17,18,46,10.30
2018,01,17,18,47,10.30
2018,01,17,18,48,10.30
2018,01,17,18,49,10.30
2018,01,17,18,50,10.30
2018,01,17,18,51,10.30
2018,01,17,18,52,10.20
2018,01,17,18,53,10.20
2018,01,17,18,54,10.30
2018,01,17,18,55,10.30
2018,01,17,18,56,10.30
2018,01,17,18,57,10.30
2018,01,17,18,58,10.30
2018,01,17,18,59,10.30
2018,01,17,19,00,10.40
2018,01,17,19,01,10.40
2018,01,17,19,02,10.40
2018,01,17,19,03,10.50
2018,01,17,19,04,10.60
2018,01,17,19,05,10.60
2018,01,17,19,06,10.60
2018,01,17,19,07,10.60
2018,01,17,19,08,10.60
2018,01,17,19,09,10.60
2018,01,17,19,10,10.50
2018,01,17,19,11,10.50
2018,01,17,19,12,10.40
2018,01,17,19,13,10.30
2018,01,17,19,14,10.30
2018,01,17,19,15,10.30
2018,01,17,19,16,10.30
2018,01,17,19,17,10.30
2018,01,17,19,18,10.20
2018,01,17,19,19,10.30
2018,01,17,19,20,10.20
2018,01,17,19,21,10.20
2018,01,17,19,22,10.20
2018,01,17,19,23,10.20
2018,01,17,19,24,10.20
2018,01,17,19,25,10.20
2018,01,17,19,26,10.20
2018,01,17,19,27,10.20
2018,01,17,19,28,10.20
2018,01,17,19,29,10.20
2018,01,17,19,30,10.20
2018,01,17,19,31,10.10
2018,01,17,19,32,10.10
2018,01,17,19,33,10.10
2018,01,17,19,34,10.10
2018,01,17,19,35,10.10
2018,01,17,19,36,10.10
2018,01,17,19,37,10.10
2018,01,17,19,38,10.10
2018,01,17,19,39,10.10
2018,01,17,19,40,10.10
2018,01,17,19,41,10.10
2018,01,17,19,42,10.10
2018,01,17,19,43,10.10
2018,01,17,19,44,10.10
2018,01,17,19,45,10.10
2018,01,17,19,46,10.10
2018,01,17,19,47,10.10
2018,01,17,19,48,10.10
2018,01,17,19,49,10.10
2018,01,17,19,50,10.10
2018,01,17,19,51,10.10
2018,01,17,19,52,10.10
2018,01,17,19,53,10.10
2018,01,17,19,54,10.10
2018,01,17,19,55,10.10
2018,01,17,19,56,10.10
2018,01,17,19,57,10.20
2018,01,17,19,58,10.20
2018,01,17,19,59,10.20
2018,01,17,20,00,10.20
2018,01,17,20,01,10.20
2018,01,17,20,02,10.20
2018,01,17,20,03,10.30
2018,01,17,20,04,10.30
2018,01,17,20,05,10.30
2018,01,17,20,06,10.30
2018,01,17,20,07,10.30
2018,01,17,20,08,10.30
2018,01,17,20,09,10.30
2018,01,17,20,10,10.30
2018,01,17,20,11,10.30
2018,01,17,20,12,10.30
2018,01,17,20,13,10.30
2018,01,17,20,14,10.30
2018,01,17,20,15,10.30
2018,01,17,20,16,10.30
2018,01,17,20,17,10.30
2018,01,17,20,18,10.30
2018,01,17,20,19,10.30
2018,01,17,20,20,10.30
2018,01,17,20,21,10.40
2018,01,17,20,22,10.40
2018,01,17,20,23,10.40
2018,01,17,20,24,10.40
2018,01,17,20,25,10.40
2018,01,17,20,26,10.30
2018,01,17,20,27,10.30
2018,01,17,20,28,10.30
2018,01,17,20,29,10.30
2018,01,17,20,30,10.30
2018,01,17,20,31,10.30
2018,01,17,20,32,10.30
2018,01,17,20,33,10.30
2018,01,17,20,34,10.40
2018,01,17,20,35,10.40
2018,01,17,20,36,10.40
2018,01,17,20,37,10.40
2018,01,17,20,38,10.40
2018,01,17,20,39,10.40
2018,01,17,20,40,10.40
2018,01,17,20,41,10.40
2018,01,17,20,42,10.40
2018,01,17,20,43,10.40
2018,01,17,20,44,10.40
2018,01,17,20,45,10.40
2018,01,17,20,46,10.40
2018,01,17,20,47,10.40
2018,01,17,20,48,10.40
2018,01,17,20,49,10.40
2018,01,17,20,50,10.40
2018,01,17,20,51,10.40
2018,01,17,20,52,10.40
2018,01,17,20,53,10.40
2018,01,17,20,54,10.40
2018,01,17,20,55,10.40
2018,01,17,20,56,10.40
2018,01,17,20,57,10.40
2018,01,17,20,58,10.40
2018,01,17,20,59,10.40
2018,01,17,21,00,10.40
2018,01,17,21,01,10.40
2018,01,17,21,02,10.40
2018,01,17,21,03,10.40
2018,01,17,21,04,10.40
2018,01,17,21,05,10.40
2018,01,17,21,06,10.40
2018,01,17,21,07,10.40
2018,01,17,21,08,10.40
2018,01,17,21,09,10.40
2018,01,17,21,10,10.30
2018,01,17,21,11,10.30
2018,01,17,21,12,10.30
2018,01,17,21,13,10.30
2018,01,17,21,14,10.30
2018,01,17,21,15,10.30
2018,01,17,21,16,10.30
2018,01,17,21,17,10.30
2018,01,17,21,18,10.30
2018,01,17,21,19,10.30
2018,01,17,21,20,10.30
2018,01,17,21,21,10.30
2018,01,17,21,22,10.30
2018,01,17,21,23,10.30
2018,01,17,21,24,10.30
2018,01,17,21,25,10.30
2018,01,17,21,26,10.30
2018,01,17,21,27,10.30
2018,01,17,21,28,10.30
2018,01,17,21,29,10.30
2018,01,17,21,30,10.30
2018,01,17,21,31,10.30
2018,01,17,21,32,10.30
2018,01,17,21,33,10.30
2018,01,17,21,34,10.30
2018,01,17,21,35,10.30
2018,01,17,21,36,10.30
2018,01,17,21,37,10.30
2018,01,17,21,38,10.30
2018,01,17,21,39,10.30
2018,01,17,21,40,10.30
2018,01,17,21,41,10.30
2018,01,17,21,42,10.30
2018,01,17,21,43,10.30
2018,01,17,21,44,10.30
2018,01,17,21,45,10.30
2018,01,17,21,46,10.20
2018,01,17,21,47,10.20
2018,01,17,21,48,10.20
2018,01,17,21,49,10.10
2018,01,17,21,50,10.10
2018,01,17,21,51,10.10
2018,01,17,21,52,10.00
2018,01,17,21,53,10.00
2018,01,17,21,54,9.90
2018,01,17,21,55,9.90
2018,01,17,21,56,9.80
2018,01,17,21,57,9.80
2018,01,17,21,58,9.80
2018,01,17,21,59,9.80
2018,01,17,22,00,9.70
2018,01,17,22,01,9.70
2018,01,17,22,02,9.60
2018,01,17,22,03,9.60
2018,01,17,22,04,9.60
2018,01,17,22,05,9.50
2018,01,17,22,06,9.50
2018,01,17,22,07,9.40
2018,01,17,22,08,9.40
2018,01,17,22,09,9.40
2018,01,17,22,10,9.30
2018,01,17,22,11,9.30
2018,01,17,22,12,9.20
2018,01,17,22,13,9.10
2018,01,17,22,14,9.10
2018,01,17,22,15,9.00
2018,01,17,22,16,9.00
2018,01,17,22,17,9.00
2018,01,17,22,18,9.00
2018,01,17,22,19,8.90
2018,01,17,22,20,8.90
2018,01,17,22,21,8.90
2018,01,17,22,22,8.80
2018,01,17,22,23,8.80
2018,01,17,22,24,8.70
2018,01,17,22,25,8.70
2018,01,17,22,26,8.60
2018,01,17,22,27,8.60
2018,01,17,22,28,8.50
2018,01,17,22,29,8.50
2018,01,17,22,30,8.40
2018,01,17,22,31,8.40
2018,01,17,22,32,8.40
2018,01,17,22,33,8.40
2018,01,17,22,34,8.40
2018,01,17,22,35,8.30
2018,01,17,22,36,8.30
2018,01,17,22,37,8.30
2018,01,17,22,38,8.30
2018,01,17,22,39,8.30
2018,01,17,22,40,8.20
2018,01,17,22,41,8.20
2018,01,17,22,42,8.20
2018,01,17,22,43,8.20
2018,01,17,22,44,8.20
2018,01,17,22,45,8.20
2018,01,17,22,46,8.20
2018,01,17,22,47,8.20
2018,01,17,22,48,8.20
2018,01,17,22,49,8.20
2018,01,17,22,50,8.20
2018,01,17,22,51,8.20
2018,01,17,22,52,8.20
2018,01,17,22,53,8.20
2018,01,17,22,54,8.20
2018,01,17,22,55,8.20
2018,01,17,22,56,8.20
2018,01,17,22,57,8.10
2018,01,17,22,58,8.10
2018,01,17,22,59,8.10
2018,01,17,23,00,8.10
2018,01,17,23,01,8.10
2018,01,17,23,02,8.10
2018,01,17,23,03,8.00
2018,01,17,23,04,8.00
2018,01,17,23,05,8.00
2018,01,17,23,06,8.00
2018,01,17,23,07,8.00
2018,01,17,23,08,8.00
2018,01,17,23,09,8.00
2018,01,17,23,10,8.00
2018,01,17,23,11,8.00
2018,01,17,23,12,8.00
2018,01,17,23,13,8.00
2018,01,17,23,14,7.90
2018,01,17,23,15,8.00
2018,01,17,23,16,8.00
2018,01,17,23,17,8.10
2018,01,17,23,18,8.10
2018,01,17,23,19,8.10
2018,01,17,23,20,8.10
2018,01,17,23,21,8.20
2018,01,17,23,22,8.20
2018,01,17,23,23,8.20
2018,01,17,23,24,8.20
2018,01,17,23,25,8.20
2018,01,17,23,26,8.10
2018,01,17,23,27,8.10
2018,01,17,23,28,8.10
2018,01,17,23,29,8.10
2018,01,17,23,30,8.10
2018,01,17,23,31,8.10
2018,01,17,23,32,8.20
2018,01,17,23,33,8.10
2018,01,17,23,34,8.10
2018,01,17,23,35,8.20
2018,01,17,23,36,8.20
2018,01,17,23,37,8.20
2018,01,17,23,38,8.20
2018,01,17,23,39,8.30
2018,01,17,23,40,8.30
2018,01,17,23,41,8.30
2018,01,17,23,42,8.30
2018,01,17,23,43,8.30
2018,01,17,23,44,8.30
2018,01,17,23,45,8.30
2018,01,17,23,46,8.30
2018,01,17,23,47,8.20
2018,01,17,23,48,8.20
2018,01,17,23,49,8.20
2018,01,17,23,50,8.20
2018,01,17,23,51,8.20
2018,01,17,23,52,8.20
2018,01,17,23,53,8.20
2018,01,17,23,54,8.20
2018,01,17,23,55,8.20
2018,01,17,23,56,8.10
2018,01,17,23,57,8.10
2018,01,17,23,58,8.10
2018,01,17,23,59,8.10
